Regional Weather Roundup
Issued by NWS

Home | Current Version | Previous Version | Text Only | Print | Product List | Glossary On
Versions: 1 2 3 4 5 6 7 8 9 10 11 12 13 14 15 16 17 18 19 20 21 22 23 24 25 26 27 28 29 30 31 32 33 34 35 36 37 38 39 40 41 42 43 44 45 46 47 48 49 50
000
ASUS43 KDTX 232001
RWRMI
MICHIGAN HOURLY REGIONAL WEATHER ROUNDUP
NATIONAL WEATHER SERVICE DETROIT/PONTIAC MI
400 PM EDT SAT MAY 23 2015

NOTE: "FAIR" INDICATES FEW OR NO CLOUDS BELOW 12,000 FEET WITH NO
SIGNIFICANT WEATHER AND/OR OBSTRUCTION TO VISIBILITY.

MIZ047>049-052>055-059>063-066>070-074>076-081>083-232100-
SOUTHEAST LOWER MICHIGAN

CITY           SKY/WX    TMP DP  RH WIND       PRES   REMARKS
ADRIAN         SUNNY     76  34  21 W12       30.33F
ALMA           SUNNY     75  34  22 SW3       30.30F
ANN ARBOR      SUNNY     75  36  24 SW9G17    30.33F
BAD AXE        MOSUNNY   73  31  21 SW9       30.30F
CARO           SUNNY     75  38  26 SW12      30.30S
DETROIT CITY   SUNNY     72  39  30 S13G22    30.33F
DETROIT        MOSUNNY   75  41  29 S10       30.33F
FLINT          SUNNY     76  34  21 NW8G18    30.32F
GROSSE ILE     SUNNY     70  39  32 SE7       30.33F
HILLSDALE      SUNNY     76  34  22 SW8       30.33F
HOWELL         SUNNY     74  31  20 S5        30.32F

CITY           SKY/WX    TMP DP  RH WIND       PRES   REMARKS
JACKSON        SUNNY     75  38  26 W6        30.32F
LAMBERTVILLE   SUNNY     77  36  22 NW3       30.33F
LANSING        SUNNY     75  34  22 VRB7      30.32F
LAPEER         FAIR      74  32  21 SW10      30.32S
MASON          SUNNY     73  35  24 S6        30.32F
MONROE         SUNNY     72  43  35 SE7       30.32F
MT. CLEMENS    MOSUNNY   71  39  32 S15G21    30.32F
PONTIAC        MOSUNNY   73  32  22 VRB3      30.33S
PORT HOPE        N/A     74  34  23 W13G20    30.27F
PORT HURON     SUNNY     72  39  30 S10       30.32F
TRI CITIES     SUNNY     77  33  20 SW14G21   30.30S
MIDLAND        FAIR      76  34  21 S12       30.28F
TROY           SUNNY     75  31  20 W3        30.35S
SAGINAW HB     SUNNY     77  30  18 SW10G17   30.29F
$$
MIZ043>046-050>051-056>058-064>065-071>073-077>080-232100-
SOUTHWEST LOWER MICHIGAN

CITY           SKY/WX    TMP DP  RH WIND       PRES   REMARKS
BATTLE CREEK   SUNNY     75  36  24 SW9       30.32F
BENTON HARBOR  SUNNY     75  43  31 VRB5      30.29F
BIG RAPIDS     SUNNY     74  26  16 W14G20    30.28F
COLDWATER      SUNNY     75  40  28 SW8       30.31F
FREMONT        FAIR      75  27  16 SW7       30.29F
HOLLAND        SUNNY     75  41  29 VRB7      30.31F
GRAND RAPIDS   MOSUNNY   77  36  22 W6        30.30F
IONIA          FAIR      77  33  19 W10       30.29F
KALAMAZOO      SUNNY     77  38  24 VRB6      30.31F
LUDINGTON      SUNNY     71  23  16 SW14G22   30.30F
MARSHALL       SUNNY     75  36  23 SW5       30.31F
MOUNT PLEASANT SUNNY     76  35  23 SW10G20   30.29F
MUSKEGON       PTSUNNY   73  30  20 SW7       30.30F
SOUTH HAVEN    SUNNY     77  34  21 NW6       30.29F
$$
MIZ016>042-232100-
NORTHERN LOWER MICHIGAN

CITY           SKY/WX    TMP DP  RH WIND       PRES   REMARKS
ALPENA         SUNNY     78  32  18 W9G22     30.22F
BEAVER ISLAND  SUNNY     65  31  28 SW18G25   30.24F
BELLAIRE       SUNNY     73  33  23 SW8G17    30.27S
CADILLAC       SUNNY     75  36  24 SW9G20    30.27F
CHARLEVOIX     FAIR      71  34  25 W18G24    30.28F
FRANKFORT      SUNNY     68  22  17 SW8G17    30.29F
GAYLORD        SUNNY     73  31  21 W15G29    30.27R
GRAYLING       SUNNY     75  32  20 W14G21    30.27S
HARBOR SPRINGS SUNNY     67  33  27 W10G17    30.26S
HOUGHTON LAKE  SUNNY     74  34  23 SW12      30.28S
MANISTEE       SUNNY     72  30  21 SW9G20    30.29F
OSCODA         SUNNY     77  35  21 W14G25    30.23F
PELLSTON       SUNNY     71  28  20 SW24G35   30.24F
ROGERS CITY    SUNNY     77  37  23 W14G21    30.22F
TRAVERSE CITY  MOSUNNY   77  35  21 W18G29    30.25F
$$
MIZ007>008-015-232100-
EASTERN UPPER MICHIGAN

CITY           SKY/WX    TMP DP  RH WIND       PRES   REMARKS
KINROSS        MOSUNNY   70  36  28 SW15G24   30.19S
MACKINAC ISLAN SUNNY     60  34  37 SW22G32   30.22F
NEWBERRY       MOSUNNY   72  41  32 SW20G28   30.17F
S. S. MARIE    MOSUNNY   73  36  25 W18G32    30.15F
$$
MIZ004>006-011>014-085-232100-
CENTRAL UPPER MICHIGAN

CITY           SKY/WX    TMP DP  RH WIND       PRES   REMARKS
MANISTIQUE     SUNNY     53  38  57 S12G21    30.22S
ESCANABA       SUNNY     68  43  40 S15G25    30.19S
MENOMINEE      MOSUNNY   75  41  29 S16       30.20F
SAWYER-GWINN   PTSUNNY   77  36  22 W7G21     30.16F
$$
MIZ001>003-009>011-084-232100-
WESTERN UPPER MICHIGAN

CITY           SKY/WX    TMP DP  RH WIND       PRES   REMARKS
IRON MOUNTAIN  MOSUNNY   79  32  18 SW12G20   30.18F
HOUGHTON       SUNNY     77  37  23 W17G28    30.15F
COPPER HARBOR    N/A     69  38  32 N14       30.10S
IRONWOOD       MOSUNNY   75  36  23 S8        30.15F
$$

ABBREVIATIONS USED IN REMARKS
   TC - TEMPERATURE IN CELSIUS
  WCI - WIND CHILL INDEX
   HX - HEAT INDEX
  VSB - VISIBILITY




USA.gov is the U.S. government's official web portal to all federal, state and local government web resources and services.